FENGYUN 1C DEB

Satellite information

Favourite Embed

Satellite Type and Status

DEBRISIN ORBIT

Key statistics

Satellite FENGYUN 1C DEB at a glance.

Uptime

9555

Days in orbit

Revolutions

≈ 14.3

Per day

Orbit

SSO

Sun Synchronous Orbit

Inclination

99.2

Latest

Satellite identification and parameters

Extended collection of information and parameters for FENGYUN 1C DEB.

Object identification

Identified? True

Debris? True

Object name: FENGYUN 1C DEB

International designator: 1999-025GN

Object number (NORAD): 29892

Object ID (CCSDS): 29892

Country: PEOPLES REPUBLIC OF CHINA (PRC)

Current information (Y/N): Y

RCS size: SMALL

Orbital parameters

Period: 100.763 minutes

Inclination: 99.1771 deg

SMA: 7172.893 km

Apoapsis: 935.838 km

Periapsis: 653.678 km

RAAN: 326.618 deg

Eccentricy: 0.0196685

Argument of periapsis: 38.4304 deg

Mean anomaly: 113.5666 deg

Mean motion: 14.29095542 rev/day

Mean motion (dot): 0.00003289 rev/day2

B* drag term: 0.0010698 1/REarth

Two-line elements (TLE)

Creation date: July 6, 2025, 10:46 p.m.

Reference frame: TEME

Reference center: EARTH

Epoch: July 6, 2025, 8:49 p.m. UTC

TLE line 0: 0 FENGYUN 1C DEB

TLE line 1: 1 29892U 99025GN 25187.86764823 .00003289 00000-0 10698-2 0 9990

TLE line 2: 2 29892 99.1771 326.6180 0196685 38.4304 113.5666 14.29095542943903

Live tracking on map

Real-time ground track for satellite FENGYUN 1C DEB.

In-orbit conjunctions

A list of the most updated potential collisions computed for object FENGYUN 1C DEB.

Target Orbit TCA Probability of collision Miss distance Type
FENGYUN 1C DEB SSO 2024-11-11 08:19:37 0.0006471275 594.0 (m) DEBRIS
FENGYUN 1C DEB SSO 2024-07-23 13:46:48 0.0001881656 176.0 (m) DEBRIS

Associated space launch

Chinese polar orbiting meteorological satellite

FENGYUN 1C DEB was lifted into orbit during the mission ‘Long March 4B | Feng Yun 1C’, on board a Long March 4B space rocket.

The launch took place on May 10, 1999, 1:33 a.m. from Launch Complex 7.

For more information about the launch, click the button.

Launch to space Long March 4B | Feng Yun 1C
Long March 4B | Feng Yun 1C

Agency: N/A

Status: Launch Successful

Launch date: May 10, 1999, 1:33 a.m. UTC

Rocket: Long March 4B

Launch pad: Launch Complex 7

Location: Taiyuan Satellite Launch Center, People's Republic of China

...

Latest news about this satellite

There are no fresh news available about this satellite. Check back as we update our databases every day.


Newsletter sign-up

Weekly statistics, charts and insights to help you stay on top of the space industry.